Danbury, CT

11:15 AM EDT on April 27, 2017 (GMT -0400)
Danbury Municipal

Weather History for KDXR - October, 2011

Change the Weather History Date:

Friday, October 28, 2011

  Actual Average Record
Temperature  
Mean Temperature 38 °F -  
Max Temperature 48 °F 58 °F 76 °F (1971)
Min Temperature 28 °F 35 °F 20 °F (1976)
Degree Days  
Heating Degree Days 27    
Moisture  
Dew Point 28 °F    
Average Humidity 68    
Maximum Humidity 96    
Minimum Humidity 44    
Precipitation  
Precipitation 0.00 in - - ()
Sea Level Pressure  
Sea Level Pressure 30.17 in    
Wind  
Wind Speed 8 mph (NNW)    
Max Wind Speed 15 mph    
Max Gust Speed 22 mph    
Visibility 10 miles    
Events      
Averages and records for this station are not official NWS values.
T = Trace of Precipitation, MM = Missing Value Source: NWS Daily Summary

Daily Weather History Graph

Daily Weather History Graph

Search for Another Location

Airport or City:

Trip Planner

Search our weather history database for the weather conditions in past years. The results will help you decide how hot, cold, wet, or windy it might be!

Date:

Astronomy

Oct. 28, 2011 Rise Set
Actual Time 7:20 AM EDT 5:54 PM EDT
Civil Twilight 6:51 AM EDT 6:22 PM EDT
Nautical Twilight 6:19 AM EDT 6:55 PM EDT
Astronomical Twilight 5:47 AM EDT 7:27 PM EDT
Moon 9:34 AM EDT (10/28) 7:12 PM EDT (10/28)
Length of Visible Light 11h 31m
Length of Day
10h 34m
Waxing Crescent, 5% of the Moon is Illuminated
Oct 28
Waxing Crescent
Nov 2
First Quarter
Nov 10
Full
Nov 18
Last Quarter
Nov 25
New

Hourly Weather History & Observations

Time (EDT) Temp. Windchill Dew Point Humidity Pressure Visibility Wind Dir Wind Speed Gust Speed Precip Events Conditions
12:22 AM 35.6 °F 27.1 °F 30.2 °F 81% 29.96 in 10.0 mi North 12.7 mph 18.4 mph N/A   Mostly Cloudy
12:53 AM 36.0 °F 28.5 °F 32.0 °F 86% 29.99 in 10.0 mi North 10.4 mph - N/A   Overcast
1:53 AM 35.1 °F 31.0 °F 30.9 °F 85% 30.01 in 10.0 mi NNW 4.6 mph - N/A   Mostly Cloudy
2:53 AM 35.1 °F 29.3 °F 30.9 °F 85% 30.03 in 10.0 mi North 6.9 mph - N/A   Mostly Cloudy
3:04 AM 35.6 °F 29.2 °F 30.2 °F 81% 30.03 in 10.0 mi NW 8.1 mph - N/A   Scattered Clouds
4:53 AM 33.1 °F 28.7 °F 28.9 °F 85% 30.10 in 10.0 mi NW 4.6 mph - N/A   Clear
5:53 AM 33.1 °F 30.0 °F 28.0 °F 82% 30.12 in 10.0 mi NNW 3.5 mph - N/A   Clear
6:53 AM 30.0 °F - 28.0 °F 92% 30.14 in 10.0 mi Calm Calm - N/A   Clear
7:53 AM 28.9 °F - 28.0 °F 96% 30.17 in 10.0 mi Calm Calm - N/A   Clear
8:53 AM 36.0 °F 33.3 °F 27.0 °F 70% 30.20 in 10.0 mi NW 3.5 mph - N/A   Clear
9:53 AM 39.0 °F 34.0 °F 25.0 °F 57% 30.22 in 10.0 mi WNW 6.9 mph - N/A   Clear
10:53 AM 42.1 °F 36.6 °F 27.0 °F 55% 30.22 in 10.0 mi NNW 9.2 mph - N/A   Clear
11:53 AM 43.0 °F 35.7 °F 24.1 °F 47% 30.22 in 10.0 mi North 15.0 mph 21.9 mph N/A   Partly Cloudy
12:53 PM 45.0 °F 40.1 °F 25.0 °F 46% 30.23 in 10.0 mi North 9.2 mph 18.4 mph N/A   Partly Cloudy
1:53 PM 46.9 °F - 26.1 °F 44% 30.21 in 10.0 mi North 15.0 mph 20.7 mph N/A   Partly Cloudy
2:53 PM 48.0 °F - 27.0 °F 44% 30.21 in 10.0 mi Variable 6.9 mph - N/A   Partly Cloudy
3:53 PM 46.9 °F - 26.1 °F 44% 30.22 in 10.0 mi North 10.4 mph - N/A   Partly Cloudy
4:53 PM 45.0 °F 40.1 °F 26.1 °F 48% 30.21 in 10.0 mi NNE 9.2 mph - N/A   Clear
5:53 PM 44.1 °F 39.0 °F 27.0 °F 51% 30.23 in 10.0 mi NNE 9.2 mph - N/A   Partly Cloudy
6:53 PM 43.0 °F 38.2 °F 27.0 °F 53% 30.26 in 10.0 mi North 8.1 mph - N/A   Clear
8:53 PM 41.0 °F - 28.0 °F 60% 30.27 in 10.0 mi Calm Calm - N/A   Clear
9:53 PM 39.0 °F - 32.0 °F 76% 30.27 in 10.0 mi Calm Calm - N/A   Scattered Clouds
10:53 PM 37.9 °F - 33.1 °F 83% 30.27 in 10.0 mi Calm Calm - N/A   Overcast
11:53 PM 37.9 °F - 33.1 °F 83% 30.27 in 10.0 mi Calm Calm - N/A   Mostly Cloudy